Regional Weather Roundup
Issued by NWS Charleston, WV

Home | Current Version | Previous Version | Graphics & Text | Print | Product List | Glossary On
Versions: 1 2 3 4 5 6 7 8 9 10 11 12 13 14 15 16 17 18 19 20 21 22 23 24 25 26 27 28 29 30 31 32 33 34 35 36 37 38 39 40 41 42 43 44 45 46 47 48 49 50
000
ASUS41 KRLX 040510
RWRRLX
West Virginia Regional Weather Roundup
National Weather Service Charleston WV
100 AM EDT MON MAY 04 2015

Note: "fair" indicates few or no clouds below 12,000 feet with no
significant weather and/or obstructions to visibility.

WVZ003-040600-
Northern Panhandle of West Virginia

CITY           SKY/WX    TMP DP  RH WIND       PRES   REMARKS
WHEELING       CLEAR     63  38  39 S6        30.14S
$$

WVZ009-040600-
Northwest West Virginia

CITY           SKY/WX    TMP DP  RH WIND       PRES   REMARKS
PARKERSBURG    CLEAR     54  44  69 SE3       30.16S
$$

WVZ006-040600-
Western West Virginia

CITY           SKY/WX    TMP DP  RH WIND       PRES   REMARKS
HUNTINGTON     CLEAR     55  46  71 E5        30.13S
$$

WVZ015-040600-
West Central West Virginia

CITY           SKY/WX    TMP DP  RH WIND       PRES   REMARKS
CHARLESTON     CLEAR     54  43  66 CALM      30.15S
$$

WVZ022-031-040600-
North Central West Virginia

CITY           SKY/WX    TMP DP  RH WIND       PRES   REMARKS
CLARKSBURG     CLEAR     53  43  68 CALM      30.16S
MORGANTOWN     CLEAR     56  39  53 CALM      30.17S
$$

WVZ025-035-042-045-040600-
Southern West Virginia

CITY           SKY/WX    TMP DP  RH WIND       PRES   REMARKS
BECKLEY        CLEAR     56  36  47 CALM      30.22R
LOGAN            N/A     61  37  41 CALM      30.14S
BLUEFIELD      CLEAR     64  44  48 S8        30.24S
LEWISBURG      CLEAR     50  40  68 NE5       30.23S
$$

WVZ047-040600-
Northern Mountains of West Virginia

CITY           SKY/WX    TMP DP  RH WIND       PRES   REMARKS
ELKINS         CLEAR     44  40  85 CALM      30.22R
$$

WVZ052-040600-
Eastern Panhandle of West Virginia

CITY           SKY/WX    TMP DP  RH WIND       PRES   REMARKS
MARTINSBURG    CLEAR     54  45  71 SW3       30.16R
PETERSBURG     CLEAR     48  43  82 CALM      30.20R
$$



USA.gov is the U.S. government's official web portal to all federal, state and local government web resources and services.